Location: New Plymouth
(39.0670°S, 174.0830°E)
Time: 22:36:24
(UTC+13:00)

MOS 1 - Pass Details

Date: 24 January 2019
Orbit: 878 x 891 km, 99.2° (Epoch: 20 February)

Event Time Altitude Azimuth Distance (km) Brightness Sun altitude
Rises 21:11:19 0° 165° (SSE) 3,539 7.6 -5.1°
Reaches altitude 10° 21:13:45 10° 162° (SSE) 2,592 6.9 -5.5°
Maximum altitude 21:19:33 74° 77° (ENE) 937 4.3 -6.5°
Drops below altitude 10° 21:25:15 10° 351° (N) 2,557 6.5 -7.4°
Sets 21:27:38 0° 349° (N) 3,488 7.2 -7.8°
